Location: Il Ritiro
(43.4167°N, 13.1333°E)
Time: 16:05:02
(UTC+00:00)

Landsat 4 - Pass Details

Date: 05 July 2020
Orbit: 506 x 522 km, 98.2° (Epoch: 10 August)

Event Time Altitude Azimuth Distance (km) Brightness Sun altitude
Rises 22:58:43 0° 17° (NNE) 2,650 8.5 -23.8°
Reaches altitude 10° 23:00:51 10° 22° (NNE) 1,760 7.3 -23.9°
Enters shadow 23:03:56 47° 62° (ENE) 696 4.4 -23.9°
